DELTA 1 DEB, 7035

Orbit data source: Space-Track

DELTA 1 DEB, 7035 is space debris in LEO originally from a launch on Tue, 06 Nov 1973 UTC launched from the Air Force Western Test Range (AFWTR). Debris objects in space refer to the collection of defunct objects orbiting the Earth. Examples of debris include non-operational satellites, rocket bodies, and fragments generated from explosions, collisions, or faulty payload assembly.

Loading next visibility...
Identifier
7035, 1973-086AB
Orbit
LEO
Last TLE update
8 hours ago
Origin
Manufacturer
Unknown
Mission
Spacecraft
Bus & Motor
Unknown
Mass
Unknown
Launch date (UTC)
1973-11-06 (52 years ago)
Launch vehicle
Unknown
Launch site
Air Force Western Test Range (AFWTR)
Object type
Payload
Rocket body
Debris
Shape & HBR
Unknown
Radar Cross Section
Medium (>0.1 m² and <1 m²)

Expand to show TLE details & history

TLE from 8 hours ago
0 DELTA 1 DEB
1  7035U 73086AB  25175.37615161  .00000077  00000-0  15031-2 0  9995
2  7035 101.7672 132.3463 0319125 349.2170 166.6861 11.83484118228263
Epoch: 2025-06-24T09:01Z
TLE epoch observation values (Epoch: 2025-06-24T09:01:39.499Z)
Latitude
22.78529°
Longitude
-90.84432°
Altitude
2,011.098 km
Speed
6.788 km/s
True Right ascension
21h 09m 22s
True Declination
22° 40' 52"
Sunlit
Object was in daylight at epoch
Visualization orbit readout
Latitude
12.77292°
Longitude
-92.85107°
Altitude
2,016.889 km
Speed
6.782 km/s
Apparent Right ascension
19h 22m 11s
Apparent Declination
-11° 30' 13"
Sunlit
Object is in daylight
Visualization observer readout
Local Sidereal Time
04:24:11
Azimuth
293.283° NW
Elevation
-41.61°
Doppler factor
1
Orbital elements
Apogee altitude
2,012.791 km
Perigee altitude
1,493.802 km
Semi-major axis
8,131.434 km
Eccentricity
0.03191
Inclination
101.7672°
RAAN
132.3463°
Arg. of periapsis
349.217°
True anomaly
Unknown
Mean anomaly
166.6861°
Eccentric anomaly
Unknown
Mean motion
2.96001 °/min
Orbital period
121.62 mins
BSTAR
0.0015031
Loading maneuver chart data...
Loading SW <> Apogee altitude chart data...
Loading historical data...
Loading historical data...
Loading historical data...
Loading historical data...
Loading historical data...
Loading historical data...
Loading historical data...

DELTA 1 DEB Visibility forecast

Observer location: undefined°, undefined°

Span
Click to sort rows by Start time (UTC) header in descending order
Start Az.
Max El. time (UTC)
Max El. Az.
Max El.
End time (UTC)
End Az.
9 mins2025-06-24 18:31:14.108Z73.155° E2025-06-24 18:35:14.108Z44.821° NE15.505°2025-06-24 18:40:14.108Z11.456° NNE
15 mins2025-06-24 20:26:14.108Z143.828° SSE2025-06-24 20:33:14.108Z48.616° ENE42.473°2025-06-24 20:41:14.108Z348.09° N
12 mins2025-06-24 22:27:14.108Z220.021° SW2025-06-24 22:33:14.108Z271.256° WNW23.677°2025-06-24 22:39:14.108Z316.748° NNW
19 mins2025-06-25 09:08:14.108Z31.253° NE2025-06-25 09:17:14.108Z101.801° ESE36.316°2025-06-25 09:27:14.108Z170.77° S
18 mins2025-06-25 11:08:14.108Z4.029° NNE2025-06-25 11:16:14.108Z297.382° NW37.666°2025-06-25 11:26:14.108Z228.171° WSW
6 mins2025-06-25 13:10:14.108Z335.953° NNW2025-06-25 13:13:14.108Z317.916° NNW12.981°2025-06-25 13:16:14.108Z300.554° NW
|